Regional Weather Roundup
Issued by NWS

Home | Current Version | Previous Version | Graphics & Text | Print | Product List | Glossary Off
Versions: 1 2 3 4 5 6 7 8 9 10 11 12 13 14 15 16 17 18 19 20 21 22 23 24 25 26 27 28 29 30 31 32 33 34 35 36 37 38 39 40 41 42 43 44 45 46 47 48 49 50

627
ASUS43 KLSX 291907
RWRMO

WEATHER SUMMARY FOR MISSOURI
NATIONAL WEATHER SERVICE SPRINGFIELD MO
200 PM CDT SAT APR 29 2017

NOTE: "FAIR" INDICATES FEW OR NO CLOUDS BELOW 12,000 FEET WITH NO
       SIGNIFICANT WEATHER AND/OR OBSTRUCTIONS TO VISIBILITY.
       CURRENT SKY AND/OR WEATHER CONDITIONS ARE NOT AVAILABLE FOR
       CHILLICOTHE AND FARMINGTON.

MOZ001>031-035>038-043-044-053-054-292000-
...NORTHERN AND WESTERN MISSOURI...

CITY           SKY/WX    TMP DP  RH WIND       PRES   REMARKS
KANSAS CTY INT LGT RAIN  48  47  96 NE18      29.86F
KANSAS C DTWN  LGT RAIN  50  48  93 NE12      29.85F
LEE`S SUMMIT   LGT RAIN  49  49 100 NE17      29.83F
ST JOSEPH      LGT RAIN  46  45  96 NE13      29.96R
CHILLICOTHE      N/A     47  46  97 NE15G23   29.94F
KIRKSVILLE     RAIN      43  30  60 NE18      29.99S

$$
MOZ066>068-077>081-088>096-101>105-292000-
...SOUTHWEST MISSOURI...

CITY           SKY/WX    TMP DP  RH WIND       PRES   REMARKS
SPRINGFIELD    RAIN      60  58  92 NE17      29.70F FOG
JOPLIN         TSTM      54  53  97 N9G18     29.75R FOG
BRANSON        TSTM      66  64  94 N16       29.74S

$$
MOZ032>034-039>042-045>050-055>058-069>072-292000-
...CENTRAL MISSOURI...

CITY           SKY/WX    TMP DP  RH WIND       PRES   REMARKS
COLUMBIA       TSTM      53  53 100 N17       29.80R FOG
JEFFERSON CITY TSTM      59  54  83 N14G23    29.76S
ROLLA          TSTM      64  32  30 SW15G25   29.79R VSB 1
SEDALIA        TSTM      50  50 100 N21G29    29.83F
WHITEMAN AFB   TSTM      49  49 100 NE21G36   29.76F
OSAGE BEACH    TSTM      57  57 100 CALM      29.82R

$$
MOZ051-052-059>065-292000-
...EAST CENTRAL MISSOURI...

CITY           SKY/WX    TMP DP  RH WIND       PRES   REMARKS
ST LOUIS INTL  CLOUDY    66  62  87 SE13      29.81F
SPIRIT OF STL  LGT RAIN  66  64  93 E10       29.75F
ST CHARLES     CLOUDY    61  61 100 E14       29.78F

$$
MOZ072>076-082>087-097>100-106>115-292000-
...SOUTH CENTRAL AND SOUTHEAST MISSOURI...

CITY           SKY/WX    TMP DP  RH WIND       PRES   REMARKS
CAPE GIRARDEAU PTSUNNY   81  67  62 S20G29    29.86R
FARMINGTON     CLOUDY    77  70  79 S16G22    29.82F
POPLAR BLUFF   CLOUDY    82  70  66 S18G30    29.83R
WEST PLAINS    CLOUDY    76  68  76 S13G20    29.78F

$$




USA.gov is the U.S. government's official web portal to all federal, state and local government web resources and services.